1508544000.7,2143,15.56,73938.3,-1.05,-29.95,-30.73,0,*60
1508544001.93,2144,15.56,73942.0,-1.07,-30.01,-30.83,0,*6F
1508544003.15,2145,15.56,73942.5,-1.07,-29.95,-30.67,0,*61
1508544004.42,2146,15.56,73942.8,-1.05,-29.95,-30.77,0,*61
1508544005.68,2147,15.56,73942.8,-1.07,-30.01,-30.77,0,*67
1508544006.92,2148,15.56,73940.0,-1.07,-30.17,-30.83,0,*64
1508544008.13,2149,15.56,73942.0,-1.07,-30.27,-31.01,0,*6D
1508544009.39,2150,15.56,73940.0,-1.07,-30.17,-30.95,0,*6A
1508544010.63,2151,15.56,73938.8,-1.07,-29.79,-30.61,0,*60
1508544011.83,2152,15.56,73940.8,-1.07,-29.79,-30.33,0,*64
1508544013.08,2153,15.56,73942.0,-1.07,-29.95,-30.61,0,*60
1508544014.29,2154,15.56,73940.0,-1.07,-30.11,-30.83,0,*6F
1508544015.51,2155,15.56,73940.0,-1.07,-29.57,-30.33,0,*6F
1508544016.75,2156,15.56,73942.3,-1.07,-29.89,-30.67,0,*6E
1508544017.99,2157,15.56,73942.3,-1.07,-30.11,-30.77,0,*67
1508544019.26,2158,15.56,73946.5,-1.07,-29.89,-30.61,0,*66
1508544020.47,2159,15.56,73944.5,-1.07,-29.57,-30.27,0,*66
1508544021.68,2160,15.56,73944.3,-1.07,-29.61,-30.33,0,*6C
1508544022.92,2161,15.56,73948.3,-1.07,-29.73,-30.33,0,*6E
1508544024.15,2162,15.56,73940.5,-1.07,-29.73,-30.33,0,*6D
1508544025.39,2163,15.56,73942.8,-1.05,-29.57,-30.27,0,*6D
1508544026.65,2164,15.56,73946.0,-1.07,-29.89,-30.51,0,*6A
1508544027.92,2165,15.56,73940.0,-1.05,-29.73,-30.39,0,*62
1508544029.17,2166,15.56,73942.3,-1.05,-29.73,-30.27,0,*6E
1508544030.45,2167,15.56,73942.8,-1.05,-29.51,-30.05,0,*6F
1508544031.74,2168,15.56,73942.0,-1.05,-29.51,-30.05,0,*60
1508544033.03,2169,15.56,73940.0,-1.05,-29.89,-30.61,0,*66
1508544034.29,2170,15.56,73938.3,-1.05,-29.95,-30.61,0,*63
1508544035.57,2171,15.56,73938.0,-1.05,-30.05,-30.61,0,*63
1508544036.85,2172,15.56,73942.3,-1.05,-30.05,-30.73,0,*63
1508544038.11,2173,15.56,73940.0,-1.07,-30.01,-30.61,0,*67
1508544039.37,2174,15.56,73942.0,-1.05,-29.89,-30.45,0,*6C
1508544040.62,2175,15.56,73938.3,-1.05,-29.95,-30.55,0,*61
1508544041.9,2176,15.56,73938.0,-1.05,-29.89,-30.55,0,*6F
1508544043.15,2177,15.56,73940.8,-1.07,-30.27,-30.77,0,*60
1508544044.35,2178,15.56,73938.5,-1.07,-30.45,-31.01,0,*6B
1508544045.6,2179,15.56,73938.8,-1.05,-30.23,-30.77,0,*68
1508544046.8,2180,15.56,73936.8,-1.07,-30.45,-31.01,0,*6C
1508544048.06,2181,15.56,73938.0,-1.05,-30.27,-30.89,0,*6A
1508544049.33,2182,15.56,73936.0,-1.07,-30.17,-30.77,0,*69
1508544050.57,2183,15.56,73938.8,-1.07,-30.23,-30.77,0,*6F
1508544051.81,2184,15.56,73936.3,-1.07,-30.17,-30.83,0,*64
1508544053.05,2185,15.56,73938.3,-1.07,-30.27,-30.77,0,*6D
1508544054.27,2186,15.56,73938.8,-1.07,-30.27,-30.83,0,*65
1508544055.48,2187,15.56,73938.3,-1.07,-30.11,-30.67,0,*6B
1508544056.73,2188,15.56,73938.8,-1.07,-29.89,-30.33,0,*6C
1508544057.97,2189,15.56,73938.8,-1.07,-29.89,-30.33,0,*6D
1508544059.18,2190,15.56,73940.0,-1.07,-30.11,-30.67,0,*6D
1508544060.42,2191,15.56,73938.3,-1.07,-30.11,-30.61,0,*6A
1508544061.63,2192,15.56,73938.0,-1.07,-30.11,-30.67,0,*6F
1508544062.87,2193,15.56,73938.5,-1.07,-30.27,-30.77,0,*6A
1508544064.11,2194,15.56,73936.0,-1.07,-30.33,-30.77,0,*68
1508544065.31,2195,15.56,73936.0,-1.11,-30.33,-31.01,0,*6E
1508544066.55,2196,15.56,73938.8,-1.11,-30.27,-30.77,0,*68
1508544067.76,2197,15.56,73938.5,-1.07,-30.33,-30.67,0,*6A
1508544068.99,2198,15.56,73938.8,-1.11,-30.01,-30.45,0,*63
1508544070.25,2199,15.56,73938.0,-1.11,-30.01,-30.61,0,*64
1508544071.46,2200,15.56,73934.5,-1.11,-30.27,-30.67,0,*65
1508544072.75,2201,15.56,73936.0,-1.13,-30.17,-30.73,0,*60
1508544073.98,2202,15.56,73936.5,-1.11,-30.11,-30.61,0,*64
1508544075.19,2203,15.56,73934.0,-1.11,-29.95,-30.27,0,*63
1508544076.47,2204,15.56,73934.8,-1.13,-30.01,-30.51,0,*62
1508544077.71,2205,15.56,73930.3,-1.11,-30.27,-30.77,0,*61
1508544078.94,2206,15.56,73928.5,-1.13,-30.23,-30.83,0,*6F
1508544080.18,2207,15.56,73928.3,-1.13,-29.95,-30.33,0,*60
1508544081.39,2208,15.56,73930.5,-1.11,-29.79,-30.33,0,*6F
1508544082.64,2209,15.56,73932.5,-1.11,-30.01,-30.39,0,*63
1508544083.87,2210,15.56,73938.3,-1.11,-30.11,-30.51,0,*64
1508544085.12,2211,15.56,73934.0,-1.13,-30.23,-30.73,0,*66
1508544086.38,2212,15.56,73938.0,-1.13,-29.61,-30.05,0,*6A
1508544087.64,2213,15.56,73938.3,-1.11,-29.73,-30.17,0,*69
1508544088.84,2214,15.56,73934.8,-1.11,-29.95,-30.27,0,*65
1508544090.12,2215,15.56,73936.5,-1.13,-30.05,-30.51,0,*66
1508544091.38,2216,15.56,73934.3,-1.13,-29.95,-30.39,0,*6A
1508544092.65,2217,15.56,73932.3,-1.13,-30.05,-30.55,0,*60
1508544093.86,2218,15.56,73934.3,-1.11,-29.79,-30.27,0,*6B
1508544095.13,2219,15.56,73934.0,-1.13,-30.05,-30.55,0,*6E
1508544096.36,2220,15.56,73938.5,-1.11,-30.11,-30.51,0,*67
1508544097.6,2221,15.56,73940.0,-1.11,-29.89,-30.33,0,*6B
1508544098.88,2222,15.56,73938.5,-1.13,-30.17,-30.55,0,*65
1508544100.08,2223,15.56,73936.8,-1.11,-30.11,-30.45,0,*61
1508544101.31,2224,15.56,73938.8,-1.11,-30.01,-30.45,0,*67
1508544102.58,2225,15.56,73936.8,-1.13,-30.01,-30.39,0,*6F
1508544103.86,2226,15.56,73936.8,-1.13,-30.05,-30.39,0,*68
1508544105.14,2227,15.56,73938.3,-1.13,-30.17,-30.55,0,*60
1508544106.39,2228,15.56,73938.5,-1.11,-30.01,-30.51,0,*6E
1508544107.63,2229,15.56,73936.3,-1.11,-30.27,-30.61,0,*68
1508544108.9,2230,15.56,73936.3,-1.13,-30.05,-30.51,0,*61
1508544110.19,2231,15.56,73936.5,-1.13,-30.17,-30.51,0,*63
1508544111.44,2232,15.56,73938.5,-1.13,-30.33,-30.73,0,*66
1508544112.72,2233,15.56,73938.5,-1.13,-30.05,-30.51,0,*62
1508544113.97,2234,15.56,73942.5,-1.11,-30.01,-30.39,0,*6D
1508544115.21,2235,15.56,73938.0,-1.13,-29.95,-30.33,0,*61
1508544116.44,2236,15.56,73936.5,-1.11,-30.01,-30.33,0,*65
1508544117.65,2237,15.56,73936.3,-1.11,-29.95,-30.33,0,*61
1508544118.91,2238,15.56,73936.5,-1.13,-29.67,-30.17,0,*67
1508544120.15,2239,15.56,73934.3,-1.13,-29.83,-30.23,0,*6B
1508544121.38,2240,15.56,73934.3,-1.13,-29.95,-30.23,0,*62
1508544122.66,2241,15.56,73936.0,-1.13,-30.05,-30.51,0,*67
1508544123.94,2242,15.56,73934.3,-1.13,-30.17,-30.55,0,*63
1508544125.19,2243,15.56,73934.8,-1.13,-30.33,-30.55,0,*64
1508544126.46,2244,15.56,73932.8,-1.13,-30.05,-30.51,0,*62
1508544127.74,2245,15.56,73932.8,-1.13,-30.01,-30.39,0,*69
1508544129.0,2246,15.56,73932.8,-1.13,-30.05,-30.33,0,*64
1508544130.23,2247,15.56,73932.5,-1.11,-30.01,-30.33,0,*63
1508544131.46,2248,15.56,73938.0,-1.11,-30.01,-30.33,0,*6C
1508544132.71,2249,15.56,73932.0,-1.13,-30.05,-30.33,0,*6B
1508544133.97,2250,15.56,73938.0,-1.13,-29.79,-30.05,0,*65
1508544135.2,2251,15.56,73936.5,-1.13,-29.95,-30.23,0,*62
1508544136.48,2252,15.56,73932.5,-1.13,-30.17,-30.39,0,*68
1508544137.76,2253,15.56,73934.0,-1.13,-30.17,-30.51,0,*67
1508544139.01,2254,15.56,73934.3,-1.13,-30.23,-30.51,0,*67
1508544140.29,2255,15.56,73934.0,-1.13,-30.17,-30.55,0,*65
1508544141.54,2256,15.56,73932.8,-1.13,-30.23,-30.51,0,*65
1508544142.78,2257,15.56,73932.8,-1.15,-29.95,-30.17,0,*65
1508544144.02,2258,15.56,73932.3,-1.15,-30.01,-30.33,0,*69
1508544145.24,2259,15.56,73934.8,-1.15,-30.23,-30.55,0,*68
1508544146.48,2260,15.56,73934.0,-1.15,-29.79,-30.17,0,*63
1508544147.68,2261,15.56,73934.8,-1.17,-29.83,-30.23,0,*62
1508544148.91,2262,15.56,73934.5,-1.15,-30.01,-30.33,0,*60
1508544150.13,2263,15.56,73932.5,-1.15,-29.83,-30.23,0,*62
1508544151.38,2264,15.56,73934.0,-1.15,-30.01,-30.39,0,*6C
1508544152.63,2265,15.56,73930.0,-1.15,-30.17,-30.39,0,*6A
1508544153.86,2266,15.56,73930.5,-1.15,-30.23,-30.51,0,*60
1508544155.06,2267,15.56,73930.8,-1.17,-30.27,-30.45,0,*62
1508544156.3,2268,15.56,73932.8,-1.15,-30.17,-30.33,0,*6D
1508544157.53,2269,15.56,73936.8,-1.15,-30.05,-30.23,0,*6E
1508544158.73,2270,15.56,73930.5,-1.15,-29.79,-30.23,0,*65
1508544159.97,2271,15.56,73934.8,-1.15,-29.51,-29.79,0,*69
1508544161.2,2272,15.56,73932.5,-1.15,-29.83,-30.05,0,*66
1508544162.43,2273,15.56,73934.0,-1.15,-30.01,-30.23,0,*61
1508544163.68,2274,15.56,73932.3,-1.15,-30.05,-30.39,0,*69
1508544164.91,2275,15.56,73934.5,-1.15,-30.05,-30.33,0,*62
1508544166.12,2276,15.56,73930.8,-1.15,-29.95,-30.23,0,*61
1508544167.38,2277,15.56,73938.0,-1.15,-30.01,-30.05,0,*61
1508544168.61,2278,15.56,73938.0,-1.15,-29.83,-30.05,0,*6C
1508544169.82,2279,15.56,73936.5,-1.15,-29.83,-30.11,0,*68
1508544171.03,2280,15.56,73936.0,-1.15,-29.61,-29.95,0,*66
1508544172.29,2281,15.56,73932.3,-1.13,-29.51,-29.83,0,*65
1508544173.53,2282,15.56,73932.8,-1.15,-29.67,-30.01,0,*67
1508544174.76,2283,15.56,73932.3,-1.15,-29.79,-30.01,0,*69
1508544176.0,2284,15.56,73934.0,-1.15,-29.83,-30.05,0,*6F
1508544177.23,2285,15.56,73932.3,-1.15,-29.79,-30.05,0,*6B
1508544178.44,2286,15.56,73932.0,-1.15,-29.61,-29.83,0,*67
1508544179.67,2287,15.56,73934.0,-1.15,-29.83,-30.05,0,*6C
1508544180.9,2288,15.56,73934.0,-1.15,-30.05,-30.23,0,*61
1508544182.14,2289,15.56,73938.0,-1.15,-29.95,-30.17,0,*66
1508544183.38,2290,15.56,73934.5,-1.15,-29.95,-30.17,0,*6E
1508544184.61,2291,15.56,73936.3,-1.17,-29.83,-30.01,0,*6D
1508544185.82,2292,15.56,73934.0,-1.15,-29.67,-29.95,0,*63
1508544187.04,2293,15.56,73934.0,-1.17,-30.01,-30.23,0,*6D
1508544188.26,2294,15.56,73934.3,-1.15,-30.05,-30.23,0,*6C
1508544189.52,2295,15.56,73932.0,-1.15,-30.05,-30.17,0,*6A
1508544190.78,2296,15.56,73932.8,-1.15,-30.01,-30.17,0,*6D
1508544192.0,2297,15.56,73938.3,-1.17,-30.17,-30.27,0,*6A
1508544193.26,2298,15.56,73938.0,-1.15,-30.01,-30.17,0,*63
1508544194.48,2299,15.56,73934.5,-1.17,-30.01,-30.23,0,*67
1508544195.72,2300,15.5,73932.5,-1.17,-30.01,-30.39,0,*6D
1508544196.95,2301,15.56,73934.5,-1.15,-30.01,-30.23,0,*65
1508544198.17,2302,15.56,73932.3,-1.17,-30.01,-30.23,0,*64
1508544199.39,2303,15.56,73934.8,-1.17,-29.95,-30.05,0,*64
1508544200.65,2304,15.56,73934.5,-1.17,-29.89,-29.89,0,*62
1508544201.86,2305,15.56,73934.0,-1.15,-29.67,-29.95,0,*6C
1508544203.12,2306,15.56,73938.5,-1.15,-30.17,-30.17,0,*62
1508544204.34,2307,15.56,73938.3,-1.17,-30.01,-30.23,0,*61
1508544205.53,2308,15.56,73936.5,-1.17,-30.23,-30.27,0,*6A
1508544206.77,2309,15.56,73936.3,-1.15,-29.95,-30.01,0,*68
1508544207.97,2310,15.56,73936.0,-1.17,-29.67,-29.83,0,*6D
1508544209.2,2311,15.56,73936.8,-1.15,-29.83,-30.05,0,*62
1508544210.42,2312,15.56,73934.3,-1.17,-30.05,-30.11,0,*60
1508544211.61,2313,15.56,73932.5,-1.17,-30.23,-30.23,0,*64
1508544212.8,2314,15.56,73932.3,-1.17,-30.11,-30.23,0,*62
1508544214.02,2315,15.56,73934.8,-1.17,-30.05,-30.23,0,*66
1508544215.24,2316,15.56,73936.8,-1.17,-30.01,-30.11,0,*60
1508544216.42,2317,15.56,73934.0,-1.17,-30.23,-30.11,0,*61
1508544217.67,2318,15.56,73936.5,-1.17,-29.89,-30.05,0,*63
1508544218.87,2319,15.5,73932.5,-1.17,-30.11,-30.11,0,*6E
1508544220.06,2320,15.56,73934.5,-1.17,-30.11,-30.11,0,*64
1508544221.3,2321,15.56,73938.0,-1.17,-29.73,-30.01,0,*68
1508544222.52,2322,15.5,73936.3,-1.17,-29.73,-29.83,0,*69
1508544223.74,2323,15.56,73938.0,-1.17,-30.05,-30.11,0,*62
1508544224.99,2324,15.56,73934.8,-1.19,-29.83,-29.89,0,*64
1508544226.24,2325,15.56,73934.0,-1.17,-29.73,-29.89,0,*64
1508544227.47,2326,15.56,73938.3,-1.17,-29.83,-30.01,0,*60
1508544228.69,2327,15.56,73934.0,-1.17,-29.67,-29.73,0,*66
1508544229.9,2328,15.56,73934.0,-1.17,-29.57,-29.67,0,*6F
1508544231.14,2329,15.5,73934.0,-1.19,-29.73,-29.83,0,*6C
1508544232.42,2330,15.56,73934.0,-1.19,-29.89,-30.01,0,*63
1508544233.68,2331,15.56,73936.3,-1.19,-29.83,-29.89,0,*60
1508544234.96,2332,15.56,73936.5,-1.19,-29.89,-29.89,0,*69
1508544236.23,2333,15.56,73938.0,-1.19,-29.73,-29.73,0,*68
1508544237.43,2334,15.56,73934.3,-1.17,-29.83,-29.83,0,*61
1508544238.66,2335,15.56,73936.5,-1.19,-29.83,-29.83,0,*6E
1508544239.94,2336,15.56,73932.8,-1.19,-29.73,-30.01,0,*60
1508544241.19,2337,15.56,73936.8,-1.17,-29.89,-29.89,0,*62
1508544242.42,2338,15.56,73940.3,-1.19,-29.83,-29.83,0,*63
1508544243.65,2339,15.56,73942.0,-1.19,-29.57,-29.67,0,*61
1508544244.93,2340,15.56,73938.8,-1.19,-29.51,-29.35,0,*6E
1508544246.16,2341,15.56,73936.3,-1.17,-29.35,-29.23,0,*64
1508544247.38,2342,15.56,73934.5,-1.17,-29.57,-29.51,0,*66
1508544248.64,2343,15.56,73932.3,-1.17,-29.35,-29.35,0,*61
1508544249.88,2344,15.56,73934.5,-1.15,-29.51,-29.45,0,*61
1508544251.08,2345,15.56,73934.3,-1.17,-29.57,-29.57,0,*67
1508544252.34,2346,15.56,73932.5,-1.15,-29.13,-29.17,0,*62
1508544253.58,2347,15.5,73934.5,-1.17,-29.39,-29.39,0,*65
1508544254.79,2348,15.56,73934.8,-1.17,-29.67,-29.67,0,*6A
1508544255.99,2349,15.5,73932.8,-1.15,-29.67,-29.61,0,*6F
1508544257.2,2350,15.56,73938.3,-1.15,-29.79,-29.67,0,*6E
1508544258.45,2351,15.56,73938.5,-1.17,-29.89,-29.73,0,*67
1508544259.68,2352,15.56,73938.0,-1.17,-29.89,-29.83,0,*6B
1508544260.9,2353,15.56,73936.0,-1.17,-29.83,-29.73,0,*6F
1508544262.12,2354,15.56,73936.0,-1.17,-29.83,-29.73,0,*68
1508544263.35,2355,15.56,73938.3,-1.17,-30.11,-30.01,0,*67
1508544264.59,2356,15.56,73938.8,-1.17,-30.01,-29.89,0,*6D
1508544265.8,2357,15.5,73936.5,-1.17,-29.83,-29.83,0,*64
1508544267.02,2358,15.5,73932.8,-1.17,-29.89,-29.83,0,*61
1508544268.23,2359,15.56,73938.3,-1.15,-29.79,-29.79,0,*68
1508544269.45,2360,15.5,73938.0,-1.17,-30.01,-29.83,0,*62
1508544270.67,2361,15.56,73938.3,-1.17,-29.89,-29.83,0,*6B
1508544271.92,2362,15.5,73936.3,-1.17,-30.01,-29.73,0,*6F
1508544273.14,2363,15.56,73938.0,-1.17,-29.83,-29.73,0,*6C
1508544274.36,2364,15.56,73938.3,-1.17,-30.01,-29.83,0,*66
1508544275.56,2365,15.56,73938.8,-1.15,-29.95,-29.79,0,*65
1508544276.79,2366,15.56,73938.8,-1.17,-29.89,-29.83,0,*6C
1508544278.02,2367,15.56,73940.0,-1.17,-29.89,-29.83,0,*6D
1508544279.22,2368,15.56,73936.8,-1.17,-30.11,-29.83,0,*6B
1508544280.42,2369,15.56,73938.0,-1.17,-29.83,-29.67,0,*63
1508544281.68,2370,15.56,73936.3,-1.19,-29.89,-29.67,0,*6F
1508544282.92,2371,15.56,73938.3,-1.19,-29.83,-29.73,0,*61
1508544284.2,2372,15.5,73938.0,-1.19,-29.89,-29.73,0,*68
1508544285.45,2373,15.56,73936.5,-1.19,-30.01,-29.83,0,*6E
1508544286.69,2374,15.56,73936.0,-1.19,-30.05,-29.83,0,*6D
1508544287.95,2375,15.56,73938.0,-1.19,-29.89,-29.83,0,*60
1508544289.16,2376,15.56,73936.8,-1.15,-29.83,-29.79,0,*60
1508544290.4,2377,15.56,73938.8,-1.19,-30.05,-29.83,0,*6E
1508544291.63,2378,15.5,73934.3,-1.21,-29.89,-29.61,0,*6A
1508544292.86,2379,15.56,73936.8,-1.17,-29.57,-29.35,0,*6C
1508544294.08,2380,15.56,73936.0,-1.17,-29.89,-29.67,0,*6E
1508544295.36,2381,15.56,73942.5,-1.19,-29.89,-29.73,0,*64
1508544296.59,2382,15.5,73936.0,-1.19,-29.83,-29.57,0,*6B
1508544297.86,2383,15.56,73942.8,-1.19,-29.73,-29.51,0,*63
1508544299.13,2384,15.5,73940.0,-1.19,-29.73,-29.39,0,*6A
1508544300.36,2385,15.56,73942.8,-1.21,-29.67,-29.35,0,*69
1508544301.61,2386,15.56,73942.0,-1.19,-29.51,-29.23,0,*63
1508544302.86,2387,15.56,73940.5,-1.19,-29.67,-29.39,0,*6C
1508544304.14,2388,15.5,73938.3,-1.19,-29.89,-29.51,0,*6D
1508544305.38,2389,15.56,73938.8,-1.21,-29.73,-29.39,0,*6C
1508544306.63,2390,15.56,73940.0,-1.19,-29.83,-29.39,0,*60
1508544307.91,2391,15.5,73938.8,-1.19,-29.89,-29.51,0,*65
1508544309.16,2392,15.56,73942.8,-1.19,-29.51,-29.23,0,*66
1508544310.38,2393,15.56,73938.3,-1.19,-29.57,-29.23,0,*61
1508544311.61,2394,15.56,73940.0,-1.17,-29.51,-29.07,0,*68
1508544312.86,2395,15.56,73938.3,-1.17,-29.51,-29.17,0,*68
1508544314.11,2396,15.56,73936.8,-1.17,-29.51,-29.01,0,*6C
1508544315.33,2397,15.5,73934.5,-1.17,-29.57,-29.17,0,*6C
1508544316.56,2398,15.5,73930.3,-1.15,-29.67,-29.13,0,*66
1508544317.81,2399,15.56,73934.0,-1.15,-29.73,-29.29,0,*6B
1508544319.0,2400,15.5,73934.5,-1.17,-29.67,-29.23,0,*61
1508544320.22,2401,15.56,73936.5,-1.17,-29.39,-29.07,0,*6D
1508544321.47,2402,15.56,73936.3,-1.17,-29.39,-29.01,0,*68
1508544322.72,2403,15.5,73934.5,-1.13,-29.61,-29.13,0,*63
1508544323.94,2404,15.56,73936.8,-1.17,-29.67,-29.17,0,*62
1508544325.16,2405,15.5,73932.3,-1.17,-29.57,-29.17,0,*60
1508544326.39,2406,15.5,73932.0,-1.15,-29.67,-29.29,0,*6F
1508544327.62,2407,15.56,73936.8,-1.17,-29.83,-29.35,0,*6B
1508544328.87,2408,15.5,73932.0,-1.17,-29.73,-29.35,0,*6B
1508544330.11,2409,15.5,73934.5,-1.17,-29.89,-29.39,0,*63
1508544331.34,2410,15.56,73938.8,-1.15,-29.79,-29.29,0,*67
1508544332.56,2411,15.56,73936.8,-1.17,-29.57,-29.17,0,*65
1508544333.77,2412,15.5,73934.0,-1.17,-29.73,-29.23,0,*67
1508544334.99,2413,15.56,73936.5,-1.17,-29.73,-29.23,0,*66
1508544336.22,2414,15.56,73936.5,-1.15,-29.61,-29.01,0,*60
1508544337.44,2415,15.56,73938.5,-1.17,-29.57,-29.01,0,*66
1508544338.68,2416,15.5,73938.5,-1.15,-29.61,-29.01,0,*62
1508544339.9,2417,15.5,73936.8,-1.15,-29.61,-29.13,0,*60
1508544341.15,2418,15.5,73934.0,-1.17,-29.51,-29.01,0,*6D
1508544342.38,2419,15.5,73934.3,-1.17,-29.39,-28.97,0,*6C
1508544343.61,2420,15.5,73936.5,-1.15,-29.45,-28.91,0,*69
1508544344.85,2421,15.56,73942.5,-1.15,-29.51,-28.97,0,*6B
1508544346.08,2422,15.56,73942.5,-1.17,-29.51,-28.97,0,*6A
1508544347.3,2423,15.5,73934.0,-1.17,-29.39,-28.97,0,*65
1508544348.53,2424,15.5,73938.0,-1.15,-29.79,-29.17,0,*6D
1508544349.72,2425,15.56,73938.0,-1.17,-29.83,-29.23,0,*6C
1508544350.95,2426,15.56,73938.5,-1.15,-29.67,-29.13,0,*64
1508544352.17,2427,15.5,73934.3,-1.15,-29.67,-29.13,0,*65
1508544353.4,2428,15.56,73938.5,-1.15,-29.95,-29.29,0,*6E
1508544354.63,2429,15.5,73932.3,-1.15,-29.79,-29.13,0,*64
1508544355.88,2430,15.5,73932.3,-1.15,-29.51,-28.75,0,*67
1508544357.1,2431,15.5,73936.8,-1.17,-29.67,-29.13,0,*60
1508544358.31,2432,15.5,73936.0,-1.17,-30.01,-29.23,0,*68
1508544359.52,2433,15.5,73932.5,-1.15,-29.61,-28.97,0,*6B
1508544360.75,2434,15.5,73936.3,-1.17,-29.51,-28.85,0,*6E
1508544361.98,2435,15.56,73938.0,-1.15,-29.45,-28.75,0,*67
1508544363.22,2436,15.5,73938.8,-1.15,-29.67,-28.91,0,*6E
1508544364.42,2437,15.5,73936.8,-1.15,-29.61,-28.97,0,*6F
1508544365.68,2438,15.56,73938.5,-1.15,-29.29,-28.63,0,*67
1508544366.94,2439,15.5,73936.5,-1.15,-29.51,-28.79,0,*62
1508544368.15,2440,15.5,73936.3,-1.15,-29.67,-28.97,0,*69
1508544369.37,2441,15.5,73932.5,-1.17,-29.83,-29.01,0,*6E
1508544370.6,2442,15.56,73936.5,-1.15,-29.61,-28.79,0,*6D
1508544371.83,2443,15.5,73936.5,-1.17,-29.51,-28.85,0,*6E
1508544373.06,2444,15.5,73936.3,-1.15,-29.45,-28.79,0,*6D
1508544374.29,2445,15.56,73940.5,-1.15,-29.61,-29.01,0,*64
1508544375.53,2446,15.56,73940.3,-1.15,-29.61,-28.91,0,*6F
1508544376.76,2447,15.5,73938.3,-1.15,-29.61,-28.91,0,*6E
1508544378.0,2448,15.5,73936.5,-1.15,-29.61,-28.91,0,*61
1508544379.19,2449,15.5,73938.3,-1.17,-29.83,-28.97,0,*68
1508544380.4,2450,15.5,73938.5,-1.15,-29.67,-28.97,0,*68
1508544381.59,2451,15.5,73938.0,-1.17,-29.83,-29.07,0,*69
1508544382.8,2452,15.5,73932.3,-1.15,-29.83,-29.07,0,*68
1508544384.02,2453,15.56,73936.0,-1.17,-29.51,-28.69,0,*6D
1508544385.24,2454,15.5,73938.8,-1.17,-29.67,-28.79,0,*6E
1508544386.49,2455,15.56,73940.3,-1.17,-29.39,-28.47,0,*69
1508544387.75,2456,15.56,73936.8,-1.15,-29.51,-28.75,0,*67
1508544389.04,2457,15.5,73936.5,-1.13,-29.35,-28.59,0,*6C
1508544390.24,2458,15.5,73938.3,-1.17,-29.67,-28.85,0,*61
1508544391.5,2459,15.5,73938.5,-1.15,-29.51,-28.75,0,*68
1508544392.74,2460,15.5,73938.8,-1.15,-29.89,-28.97,0,*6B
1508544393.96,2461,15.5,73932.3,-1.17,-29.73,-28.85,0,*6E
1508544395.19,2462,15.56,73938.5,-1.15,-29.79,-28.91,0,*60
1508544396.41,2463,15.56,73938.3,-1.17,-29.79,-28.91,0,*63
1508544397.66,2464,15.5,73934.5,-1.17,-29.89,-29.01,0,*63
1508544398.88,2465,15.5,73938.5,-1.17,-29.89,-28.97,0,*6C
1508544400.11,2466,15.56,73940.0,-1.15,-29.61,-28.75,0,*67
1508544401.31,2467,15.5,73934.5,-1.17,-29.57,-28.53,0,*65
1508544402.54,2468,15.5,73934.8,-1.17,-29.51,-28.53,0,*6C
1508544403.76,2469,15.5,73936.8,-1.17,-29.73,-28.85,0,*66
1508544404.98,2470,15.5,73938.5,-1.17,-29.83,-28.79,0,*62
1508544406.18,2471,15.5,73934.8,-1.17,-29.67,-28.69,0,*68
1508544407.41,2472,15.5,73932.0,-1.15,-29.45,-28.47,0,*65
1508544408.65,2473,15.5,73928.5,-1.15,-29.61,-28.63,0,*64
1508544409.91,2474,15.5,73928.0,-1.15,-29.73,-28.59,0,*69
1508544411.14,2475,15.5,73934.5,-1.17,-29.35,-28.37,0,*60
1508544412.37,2476,15.5,73936.5,-1.17,-29.51,-28.37,0,*61
1508544413.6,2477,15.5,73936.0,-1.17,-29.67,-28.63,0,*64
1508544414.85,2478,15.5,73938.8,-1.15,-29.13,-28.09,0,*66
1508544416.1,2479,15.56,73936.3,-1.17,-29.29,-28.25,0,*62
1508544417.33,2480,15.5,73932.8,-1.17,-29.51,-28.31,0,*6E
1508544418.6,2481,15.5,73934.5,-1.15,-29.35,-28.25,0,*6A
1508544419.87,2482,15.5,73932.5,-1.13,-29.35,-28.31,0,*6A
1508544421.1,2483,15.5,73934.5,-1.15,-29.61,-28.59,0,*62
1508544422.3,2484,15.5,73932.0,-1.17,-29.67,-28.53,0,*6B
1508544423.5,2485,15.5,73934.5,-1.17,-29.67,-28.53,0,*6A
1508544424.72,2486,15.5,73934.5,-1.17,-29.73,-28.53,0,*6C
1508544425.96,2487,15.5,73932.0,-1.15,-29.67,-28.47,0,*6F
1508544427.21,2488,15.5,73930.8,-1.15,-29.29,-28.09,0,*60
1508544428.47,2489,15.5,73934.8,-1.17,-29.39,-28.21,0,*68
1508544429.72,2490,15.5,73934.8,-1.15,-29.17,-28.09,0,*64
1508544430.99,2491,15.5,73930.0,-1.15,-29.35,-28.25,0,*6B
1508544432.24,2492,15.5,73934.5,-1.15,-29.35,-28.15,0,*6B
1508544433.48,2493,15.5,73932.3,-1.15,-29.45,-28.25,0,*6E
1508544434.73,2494,15.5,73932.0,-1.15,-29.17,-28.09,0,*60
1508544436.0,2495,15.5,73928.5,-1.15,-29.35,-28.09,0,*61
1508544437.25,2496,15.5,73928.8,-1.15,-29.29,-28.09,0,*6F
1508544438.5,2497,15.56,73934.8,-1.15,-29.51,-28.31,0,*6A
1508544439.74,2498,15.5,73934.0,-1.13,-29.45,-28.15,0,*60
1508544440.99,2499,15.5,73930.3,-1.13,-29.67,-28.43,0,*62
1508544442.23,2500,15.5,73932.8,-1.15,-29.67,-28.43,0,*65
1508544443.46,2501,15.5,73934.3,-1.15,-29.67,-28.43,0,*64
1508544444.69,2502,15.5,73934.5,-1.15,-29.79,-28.47,0,*6C
1508544445.9,2503,15.5,73932.8,-1.15,-29.61,-28.15,0,*63
1508544447.17,2504,15.5,73932.5,-1.15,-29.51,-27.99,0,*6C
1508544448.39,2505,15.5,73934.3,-1.17,-29.67,-28.47,0,*66
1508544449.63,2506,15.5,73930.3,-1.15,-29.67,-28.43,0,*63
1508544450.85,2507,15.5,73930.3,-1.15,-29.79,-28.47,0,*69
1508544452.05,2508,15.5,73930.5,-1.17,-29.67,-28.37,0,*6C
1508544453.29,2509,15.5,73930.5,-1.15,-29.67,-28.43,0,*6C
1508544454.53,2510,15.5,73930.8,-1.15,-29.57,-28.21,0,*63
1508544455.76,2511,15.5,73936.0,-1.15,-29.29,-27.93,0,*6D
1508544457.0,2512,15.5,73932.8,-1.15,-29.51,-28.15,0,*60
1508544458.23,2513,15.5,73934.0,-1.17,-29.57,-28.21,0,*62
1508544459.5,2514,15.5,73932.0,-1.15,-29.35,-27.99,0,*6F
1508544460.74,2515,15.5,73928.8,-1.17,-29.17,-27.83,0,*67
1508544461.97,2516,15.5,73934.3,-1.17,-29.57,-28.05,0,*61
1508544463.2,2517,15.5,73934.0,-1.15,-29.17,-27.77,0,*6C
1508544464.44,2518,15.5,73928.5,-1.15,-29.45,-27.99,0,*64
1508544465.68,2519,15.5,73932.8,-1.15,-29.45,-27.99,0,*65
1508544466.93,2520,15.5,73932.8,-1.15,-29.13,-27.83,0,*67
1508544468.17,2521,15.5,73930.0,-1.15,-29.35,-27.93,0,*63
1508544469.37,2522,15.5,73932.0,-1.17,-29.23,-27.89,0,*6E
1508544470.59,2523,15.5,73934.5,-1.17,-29.23,-27.83,0,*65
1508544471.86,2524,15.5,73932.8,-1.15,-29.35,-27.83,0,*67
1508544473.11,2525,15.5,73932.5,-1.17,-29.39,-28.05,0,*69
1508544474.38,2526,15.5,73934.5,-1.15,-29.51,-28.09,0,*6A
1508544475.61,2527,15.5,73928.0,-1.13,-29.45,-27.93,0,*64
1508544476.81,2528,15.5,73932.0,-1.17,-29.45,-27.93,0,*6F
1508544478.04,2529,15.5,73930.0,-1.15,-29.45,-27.83,0,*6D
1508544479.27,2530,15.56,73932.5,-1.15,-29.29,-27.77,0,*64
1508544480.5,2531,15.5,73932.0,-1.15,-29.29,-27.77,0,*65
1508544481.73,2532,15.5,73930.8,-1.15,-29.29,-27.77,0,*66
1508544482.96,2533,15.5,73934.5,-1.15,-29.17,-27.55,0,*6A
1508544484.19,2534,15.5,73932.5,-1.15,-29.29,-27.77,0,*60
1508544485.44,2535,15.5,73932.8,-1.15,-29.13,-27.45,0,*69
1508544486.67,2536,15.5,73928.8,-1.15,-29.17,-27.77,0,*6F
1508544487.9,2537,15.5,73928.5,-1.15,-29.35,-27.77,0,*6E
1508544489.14,2538,15.5,73934.5,-1.15,-29.17,-27.71,0,*67
1508544490.35,2539,15.5,73930.8,-1.15,-29.45,-27.77,0,*67
1508544491.61,2540,15.5,73934.3,-1.15,-29.51,-27.99,0,*6C
1508544492.9,2541,15.5,73926.3,-1.13,-29.35,-27.83,0,*62
1508544494.14,2542,15.5,73930.8,-1.15,-29.35,-27.77,0,*6C
1508544495.39,2543,15.5,73934.5,-1.15,-29.13,-27.61,0,*6E
1508544496.62,2544,15.5,73932.8,-1.15,-29.13,-27.55,0,*6E
1508544497.88,2545,15.5,73928.8,-1.15,-29.13,-27.39,0,*65
1508544499.14,2546,15.5,73930.5,-1.15,-29.01,-27.39,0,*65
1508544500.37,2547,15.5,73928.5,-1.15,-29.29,-27.55,0,*64
1508544501.63,2548,15.5,73928.0,-1.15,-29.17,-27.61,0,*61
1508544502.84,2549,15.5,73928.3,-1.15,-28.97,-27.29,0,*65
1508544504.1,2550,15.5,73928.0,-1.15,-29.01,-27.39,0,*62
1508544505.36,2551,15.5,73934.0,-1.15,-29.01,-27.39,0,*63
1508544506.57,2552,15.5,73934.5,-1.15,-29.45,-27.71,0,*6C